Regional Weather Roundup
Issued by NWS Grand Forks, ND

Home | Current Version | Previous Version | Graphics & Text | Print | Product List | Glossary On
Versions: 1 2 3 4 5 6 7 8 9 10 11 12 13 14 15 16 17 18 19 20 21 22 23 24 25 26 27 28 29 30 31 32 33 34 35 36 37 38 39 40 41 42 43 44 45 46 47 48 49 50
000
ASUS43 KFGF 201131
RWRFGF
PRAIRIE TO PINES  WEATHER ROUNDUP
NATIONAL WEATHER SERVICE EASTERN NORTH DAKOTA/GRAND FORKS ND
600 AM CDT SAT SEP 20 2014

 **SATELLITE DATA USED TO AUGMENT SKY COVER AT AUTOMATED STATIONS**
 *****  WEATHER ACROSS EASTERN NORTH DAKOTA  *****

CITY           SKY/WX    TMP DP  RH WIND       PRES   REMARKS
GRAND FORKS    CLEAR     49  48  97 W6        29.77R
GRAND FRKS AFB PTCLDY    47  47  99 NW3       29.78R
GRAND FRKS NWS   N/A     48 N/A N/A MISG        N/A
DEVILS LAKE    CLEAR     55  48  76 W7        29.77S
FARGO          CLEAR     51  49  92 CALM      29.80R
WAHPETON ARPT  SUNNY     50  46  87 W3        29.82R
$$

 ***** WEATHER ACROSS CENTRAL AND WESTERN NORTH DAKOTA  *****

CITY           SKY/WX    TMP DP  RH WIND       PRES   REMARKS
BISMARCK       CLEAR     53  51  93 SW3       29.86F
MINOT          CLEAR     54  49  83 SW12      29.80S
JAMESTOWN      CLEAR     54  52  93 W7        29.82S
MINOT AFB      CLEAR     53  52  99 W8        29.79S
GARRISON         N/A     51  50  96 W5        29.84S
WILLISTON      CLOUDY    54  51  90 S5        29.85S
DICKINSON      PTCLDY    54  47  77 W10       29.89S
HETTINGER      CLEAR     51  45  79 W7        29.95R
$$

 *****  OTHER AIRPORT OBSERVATIONS IN OUR AREA  *****

CITY           SKY/WX    TMP DP  RH WIND       PRES   REMARKS
WALHALLA       CLOUDY    54  54 100 W3        29.77R
GRAFTON AIRPOR PTSUNNY   50  50 100 NW6       29.77R
VALLEY CITY AR FAIR      54  54 100 W7        29.82S
CANDO          FAIR      48  48 100 SW5       29.79R FOG
CAVALIER APRT  CLOUDY    54  54 100 W6        29.77R
GWINNER        SUNNY     55  55 100 W7        29.85R
SHEYENNE NWR     N/A     50  49  96 S3        29.95S
ROLLA          FAIR      48  48 100 SW6       29.78S
 ***** THE ABOVE OBSERVATIONS ARE NON NWS ARE NOT QUALITY
       CONTROLLED AND MAY MIS-REPORT RAIN FOR SNOW...
$$

  *****  WEATHER ACROSS NORTHERN MINNESOTA  *****

CITY           SKY/WX    TMP DP  RH WIND       PRES   REMARKS
FLAG ISLAND    CLOUDY    52  48  87 NW13      29.69S
WARROAD        CLEAR     46  45  93 W3        29.74R
ROSEAU         CLEAR     50  45  81 W5        29.74S
HALLOCK        CLOUDY    52  52 100 NW5       29.76R
THF RVR FALLS  MOCLDY    54  52  94 NW6       29.77R
BAUDETTE       CLOUDY    53  48  83 NW9       29.71R
WASKISH        DRIZZLE   54  52  94 NW8       29.73R
CROOKSTON      CLOUDY    54  52  94 NW8       29.80R
STEPHEN NDAWN    N/A     52  52 100 NW5         N/A
GREENBUSH NDAW   N/A     52  50  93 W6          N/A
$$
  *****  WEATHER ACROSS CENTRAL AND WEST MINNESOTA  *****

CITY           SKY/WX    TMP DP  RH WIND       PRES   REMARKS
FOSSTON        CLOUDY    54  52  94 W8        29.79R
BEMIDJI        CLOUDY    54  52  92 NW7       29.75S
PARK RAPIDS    PTCLDY    55  52  89 NW8       29.78R
ELBOW LAKE     CLOUDY    57  55  93 NW12      29.81R
WADENA         PTCLDY    55  55 100 W7        29.78R
DETROIT LAKES  CLOUDY    55  54  94 NW6       29.81R
MOORHEAD       MOCLDY    54  54 100 CALM      29.81R FOG
FERGUS FALLS   CLOUDY    55  54  94 NW7       29.82R
MORRIS MN      MOCLDY    57  55  94 NW6       29.81R
STAPLES        CLEAR     55  55 100 W6        29.77R
$$
  *****  WEATHER ELSEWHERE ACROSS MINNESOTA  *****

CITY           SKY/WX    TMP DP  RH WIND       PRES   REMARKS
DULUTH         MOCLDY    63  59  87 NW16G22   29.62R
INTRNTL FALLS  CLOUDY    56  55  97 NW8       29.66R FOG
ELY            HVY RAIN  59  57  94 W10G18    29.62R
CLOQUET        CLOUDY    61  57  88 NW12G21   29.66R
WHEATON        CLEAR     54  52  94 W5        29.83S
BRAINERD       CLEAR     58  56  93 NW7       29.73R
HIBBING        CLOUDY    61  56  83 NW15      29.67R
ALEXANDRIA     PTCLDY    58  56  93 W8        29.80R
SAINT CLOUD    MOCLDY    63  58  83 NW14G26   29.75R
MINNEAPOLIS    CLOUDY    67  64  90 SW10      29.72R
$$

  *****  WEATHER ACROSS SOUTH DAKOTA  *****

CITY           SKY/WX    TMP DP  RH WIND       PRES   REMARKS
SIOUX FALLS    CLOUDY    64  57  78 NW10      29.86R
BROOKINGS      NOT AVBL
WATERTOWN      CLEAR     56  53  90 NW5       29.86R
HURON          PTCLDY    53  50  89 NW6       29.87R
SISSETON         N/A     57  56  96 NW6       29.82R
ABERDEEN       CLEAR     52  50  93 CALM      29.86R
MITCHELL       CLOUDY    62  58  86 W6        29.89R
PIERRE         CLEAR     57  52  83 SW7       29.91R
MOBRIDGE       CLEAR     52  51  97 CALM      29.88R
RAPID CITY     PTCLDY    55  46  71 NW5       30.03R
$$

  *****  SOME WEATHER IN NEARBY STATES *****

CITY           SKY/WX    TMP DP  RH WIND       PRES   REMARKS
GLASGOW MT     CLEAR     55  44  66 W12       29.93R
GREAT FALLS MT CLEAR     49  41  74 SW10      30.13R
CHEYENNE WY    CLEAR     56  44  64 NW10      30.21R
SCOTTSBLUFF NE CLEAR     54  48  80 NW7       30.11R
OMAHA NE       CLOUDY    71  68  90 S10       29.87R
DES MOINES IA  TSTM      69  66  90 S9        29.90F
DAVENPORT IA   CLOUDY    64  60  87 SW8       29.92S
CHICAGO IL     CLOUDY    64  53  67 SW12      29.93R
EAU CLAIRE WI  MOCLDY    67  62  84 SW12      29.69F
LA CROSSE WI   CLOUDY    66  62  87 SE7       29.74S
$$

  *****  SOME NATIONAL WEATHER *****

CITY           SKY/WX    TMP DP  RH WIND       PRES   REMARKS
LA GUARDIA NY  MOCLDY    60  52  74 SE9       30.31S
RALEIGH NC     PTCLDY    59  56  89 CALM      30.22R
ATLANTA GA     MOCLDY    67  63  87 E13       30.13S
NEW ORLEANS LA CLEAR     78  71  79 E7        29.93S
OKLAHOMA CITY  MOCLDY    70  67  90 S7        29.99S FOG
ALBUQUERQUE NM CLEAR     66  58  75 N3        30.12S
SALT LAKE CITY CLEAR     58  51  78 SW3       30.12R
LOS ANGELES CA PTCLDY    67  62  84 CALM      29.89F
BOISE ID       CLEAR     56  44  64 S6        30.08R
SEATTLE WA     CLEAR     61  54  77 N9        30.11S
$$

*** WEATHER ACROSS MANITOBA...SASKATCHEWAN AND ONTARIO ***
                ***ONTARIO***

CITY           SKY/WX    TMP DP  RH WIND       PRES   REMARKS
GERALDTON      LGT RAIN N/A N/A N/A E2          N/A  VSB 5/8
THUNDER BAY    MOCLDY    54  54 100 SW5       29.53
SIOUX LOOKOUT  CLOUDY    54  54 100 N3        29.61R
TORONTO        MOCLDY    55  54  94 SW7       30.01F
BIG TROUT LK   CLOUDY    41  34  75 NW9       29.64R
PICKLE LAKE    DRIZZLE   48  48 100 NE5       29.61  FOG
DRYDEN         CLOUDY    55  54  94 NW7       29.64R
KENORA         CLOUDY    52  52 100 NW8       29.69R FOG
$$
                *** MANITOBA***

CITY           SKY/WX    TMP DP  RH WIND       PRES   REMARKS
BRANDON        FOG       50  50 100 VRB2      29.75R VSB 1/4
DAUPHIN        PTCLDY    45  45 100 SW3       29.68S FOG
ISLAND LAKE    CLOUDY    45  37  76 N6        29.68S
PILOT MOUND    NOT AVBL
THE PAS        PTCLDY    50  48  93 SW8       29.58R
THOMPSON       MOCLDY    36  36 100 E2        29.65S
WINNIPEG       FOG       41  41 100 W5        29.75S VSB 1/2
LYNN LAKE      LGT RAIN  41  39  93 E10       29.59R
CHURCHILL      CLOUDY    37  36  93 N10G17    29.69R
GILLAM         PTCLDY    32  30  93 NE5       29.69R
$$
                ***SASKATCHEWAN***

CITY           SKY/WX    TMP DP  RH WIND       PRES   REMARKS
ESTEVAN        DRIZZLE   54  50  87 NW16      29.84R
KINDERSLEY     PTCLDY    48  43  81 W8        29.96R
LLOYDMINSTER   CLEAR     48  36  61 W17G23    29.90R
PRINCE ALBERT  MOCLDY    54  43  66 W12G17    29.74R
REGINA         MOCLDY    52  50  93 W8        29.85F
YORKTON        LGT RAIN  54  50  87 NW25G37   29.77R
N. BATTLEFORD  CLEAR     52  37  58 W12       29.89R
LA RONGE       MOCLDY    48  45  87 W5        29.62R
SASKATOON      PTCLDY    46  43  87 W10       29.85R
SWIFT CURRENT  MOCLDY    50  48  93 W7        29.98R
$$
NOTE: THESE ARE AUTOMATED STATIONS WITH LIMITED QUALITY CONTROL
      "FAIR" INDICATES FEW OR NO CLOUDS BELOW 12,000 FEET WITH NO
      SIGNIFICANT WEATHER AND/OR OBSTRUCTIONS TO VISIBILITY.
      SKY/WX - SKY CONDITION AND SIGNIFICANT WEATHER.
      TMP - AIR TEMPERATURE.    DP   - DEWPOINT TEMPERATURE.
      RH  - RELATIVE HUMIDITY.  PRES - PRESSURE.
      HX  - HEAT INDEX.         WCI  - WIND CHILL INDEX.
$


USA.gov is the U.S. government's official web portal to all federal, state and local government web resources and services.